Regional Weather Roundup
Issued by NWS Jackson, KY

Home | Current Version | Previous Version | Text Only | Print | Product List | Glossary Off
Versions: 1 2 3 4 5 6 7 8 9 10 11 12 13 14 15 16 17 18 19 20 21 22 23 24 25 26 27 28 29 30 31 32 33 34 35 36 37 38 39 40 41 42 43 44 45 46 47 48 49 50

000
ASUS43 KJKL 300810
RWRJKL

EAST KENTUCKY HOURLY WEATHER ROUNDUP
NATIONAL WEATHER SERVICE JACKSON KY
400 AM EDT THU MAR 30 2017

NOTE: "FAIR" INDICATES FEW OR NO CLOUDS BELOW 12,000 FEET WITH
NO SIGNIFICANT WEATHER AND/OR OBSTRUCTIONS TO VISIBILITY.

* THESE REPORTS ARE NOT UNDER NWS QUALITY CONTROL AND MAY NOT
  REPORT WEATHER SUCH AS PRECIPITATION AND FOG.

KYZ079-080-083-085-087-088-110-112-115-119-120-300900
...EASTERN KENTUCKY...

CITY           SKY/WX    TMP DP  RH WIND       PRES   REMARKS
JACKSON        CLOUDY    50  45  83 E3        29.94F
LONDON         PTCLDY    54  46  74 CALM      29.92F
SOMERSET*      CLOUDY    55  46  71 E5        29.91F
MONTICELLO*    CLOUDY    56  52  86 W9        29.91F
WILLIAMSBURG*  MOSUNNY   55  54  94 E3        29.92F
MIDDLESBORO*   PTCLDY    51  50  96 CALM      29.96S
HARLAN APT*    SUNNY     52  48  87 CALM      29.96S
PIKE CO APT*   CLOUDY    52  49  92 S3        29.96S
BIG SANDY APT* CLOUDY    50  46  88 CALM      29.95F
MOREHEAD APT*  PTSUNNY   52  43  71 VRB3      29.95F
ASHLAND*       PTCLDY    45  43  93 CALM      29.95R
$$

KYZ035-036-041-042-044-050-067-078-099-300900
...CENTRAL KENTUCKY...

CITY           SKY/WX    TMP DP  RH WIND       PRES   REMARKS
MT STERLING*   CLOUDY    52  45  76 SE6       29.94F
FLEMING/MASON* MOCLDY    52  44  75 E8        29.94F
DANVILLE*      MOCLDY    50  46  87 CALM      29.91F
LEXINGTON      CLOUDY    53  45  74 SE13      29.90F
FRANKFORT      PTCLDY    53  44  71 E8        29.87F
LOUISVILLE     CLOUDY    56  45  66 E6        29.86F
LEBANON*         N/A     55  48  76 E5        29.88S
GLASGOW*       CLOUDY    61  53  76 CALM      29.86F
BOWLING GREEN  CLOUDY    61  55  81 E3        29.84F
$$

KYZ091>093-OHZ055-061-077-WVZ005-015-034-035-042-300900
...SOUTHERN OHIO/WEST VIRGINIA...

CITY           SKY/WX    TMP DP  RH WIND       PRES   REMARKS
COVINGTON      CLOUDY    53  44  71 E10       29.90F
COLUMBUS       CLOUDY    50  33  52 E9        29.98F
DAYTON         CLOUDY    49  36  61 E12       29.96F
WILMINGTON     CLOUDY    48  40  73 E8        29.95F
HUNTINGTON     PTCLDY    51  42  71 SE5       29.94F
CHARLESTON     PTCLDY    44  42  93 CALM      29.95F
PINEVILLE*     CLEAR     46  43  88 MISG      30.05F
BECKLEY        CLEAR     54  46  74 SE16G31   30.04S
BLUEFIELD      MOCLDY    54  46  74 SE13G20   30.06F
LOGAN CO APT*    N/A     59  48  67 VRB5      29.97F
$$

VAZ002-007-008-TNZ017-027-036-066-071-300900
...SOUTHWEST VIRGINIA/EAST TENNESSEE...

CITY           SKY/WX    TMP DP  RH WIND       PRES   REMARKS
WISE*          CLEAR     59  45  58 S8        30.02S
JONESVILLE*      N/A     50  48  93 CALM      29.99S
ABINGDON*      CLEAR     56  49  77 E3        30.01F
BRISTOL        CLEAR     50  46  86 CALM      29.98F
MORRISTOWN*    PTSUNNY   59  48  67 NE5       29.94R
SEVIERVILLE*   SUNNY     52  46  82 CALM      29.92S
KNOXVILLE      PTCLDY    58  49  72 CALM      29.92R
LAFOLLETTE*    PTSUNNY   52  50  93 CALM      29.97S
OAK RIDGE      PTCLDY    59  50  72 CALM      29.95S
CROSSVILLE     CLOUDY    61  51  70 S3        29.94F
NASHVILLE      CLOUDY    68  58  70 SE3       29.85F
$$

...KEY TO REMARKS...
VSB - VISIBILITY IN MILES
WCI - WIND CHILL INDEX
HX  - HEAT INDEX

$$



USA.gov is the U.S. government's official web portal to all federal, state and local government web resources and services.